Location: Dornbirn
(47.4124°N, 9.7438°E)
Time: 05:07:53
(UTC+01:00)

ISS - Visible Passes

Search period start: 25 February 2018 00:00
Search period end: 07 March 2018 00:00
Orbit: 402 x 407 km, 51.6° (Epoch: 25 February)

Date Brightness Start Highest point End Pass type
(mag) Time Alt. Az. Time Alt. Az. Time Alt. Az.
26 Feb -1.1 06:24:14 10° S 06:26:37 19° SE 06:28:59 10° E visible
27 Feb -0.7 05:33:41 10° SSE 05:34:36 11° SE 05:35:31 10° ESE visible
28 Feb -2.4 06:15:16 10° SSW 06:18:19 37° SE 06:21:23 10° ENE visible
01 Mar -1.7 05:24:04 13° S 05:26:11 22° SE 05:28:49 10° E visible
02 Mar -1.0 04:34:13 13° SE 04:34:13 13° SE 04:35:46 10° ESE visible
02 Mar -3.7 06:06:53 10° WSW 06:10:06 73° SSE 06:13:23 10° ENE visible
03 Mar -3.0 05:16:53 33° SSW 05:17:51 44° SSE 05:21:00 10° ENE visible
04 Mar -1.4 04:26:47 21° ESE 04:26:47 21° ESE 04:28:28 10° E visible
04 Mar -3.7 05:59:26 16° WSW 06:01:57 66° NNW 06:05:13 10° ENE visible
05 Mar -4.0 05:09:14 69° SW 05:09:35 85° SSE 05:12:52 10° ENE visible
06 Mar -1.5 04:18:58 24° E 04:18:58 24° E 04:20:29 10° ENE visible
06 Mar -3.2 05:51:36 17° W 05:53:49 45° NNW 05:57:00 10° ENE visible
